| time (UTC) | temp F | wind direction | speed MPH | gust MPH | rain 1hr in | rain 24hr in | rain mn in | humidity % | barometer mb |
| 20260504220054 | 76 | 241 | 5.0 | 11.0 | 0.00 | 0.08 | 0.08 | 47 | 1007.2 |
| 20260504214554 | 76 | 244 | 6.0 | 14.0 | 0.00 | 0.08 | 0.08 | 49 | 1007.2 |
| 20260504213102 | 74 | 254 | 4.0 | 13.0 | 0.00 | 0.08 | 0.08 | 51 | 1007.1 |
| 20260504211553 | 75 | 228 | 4.0 | 12.0 | 0.00 | 0.08 | 0.08 | 53 | 1007.1 |
| 20260504210057 | 76 | 290 | 7.0 | 15.0 | 0.00 | 0.08 | 0.08 | 50 | 1007.3 |
| 20260504204556 | 76 | 210 | 5.0 | 19.0 | 0.00 | 0.08 | 0.08 | 51 | 1007.5 |
| 20260504203109 | 75 | 256 | 9.0 | 22.0 | 0.00 | 0.08 | 0.08 | 51 | 1007.7 |
| 20260504201557 | 76 | 269 | 7.0 | 16.0 | 0.00 | 0.08 | 0.08 | 51 | 1007.6 |
| 20260504200118 | 75 | 255 | 7.0 | 16.0 | 0.00 | 0.08 | 0.08 | 53 | 1007.9 |
| 20260504194552 | 74 | 271 | 6.0 | 21.0 | 0.00 | 0.08 | 0.08 | 55 | 1008.0 |
| 20260504193056 | 74 | 187 | 5.0 | 17.0 | 0.00 | 0.08 | 0.08 | 58 | 1008.0 |
| 20260504191559 | 73 | 161 | 6.0 | 15.0 | 0.00 | 0.08 | 0.08 | 56 | 1008.1 |
| 20260504190105 | 72 | 284 | 6.0 | 17.0 | 0.00 | 0.08 | 0.08 | 57 | 1008.2 |
| 20260504184558 | 72 | 147 | 5.0 | 20.0 | 0.00 | 0.08 | 0.08 | 58 | 1008.4 |
| 20260504183059 | 71 | 221 | 8.0 | 21.0 | 0.00 | 0.08 | 0.08 | 60 | 1008.3 |
| 20260504181554 | 70 | 220 | 11.0 | 21.0 | 0.00 | 0.08 | 0.08 | 61 | 1008.4 |
| 20260504180058 | 69 | 219 | 12.0 | 26.0 | 0.00 | 0.08 | 0.08 | 61 | 1008.2 |
| 20260504174604 | 68 | 221 | 8.0 | 18.0 | 0.00 | 0.08 | 0.08 | 63 | 1008.6 |
| 20260504173101 | 67 | 184 | 9.0 | 20.0 | 0.00 | 0.08 | 0.08 | 67 | 1008.7 |
| 20260504171554 | 64 | 215 | 10.0 | 25.0 | 0.00 | 0.08 | 0.08 | 69 | 1009.1 |
| 20260504150113 | 52 | 46 | 4.0 | 18.0 | 0.03 | 0.07 | 0.07 | 90 | 1011.0 |
| 20260504120105 | 48 | 218 | 3.0 | 13.0 | 0.03 | 0.04 | 0.04 | 93 | 1012.0 |
| 20260504090104 | 48 | 241 | 1.0 | 5.0 | 0.00 | 0.00 | 0.00 | 79 | 1011.1 |
| 20260504081554 | 50 | 193 | 3.0 | 8.0 | 0.00 | 0.00 | 0.00 | 73 | 1011.9 |
| 20260504044603 | 54 | 216 | 2.0 | 7.0 | 0.00 | 0.00 | 0.00 | 61 | 1013.1 |
| 20260504043057 | 54 | 249 | 1.0 | 6.0 | 0.00 | 0.00 | 0.00 | 60 | 1013.1 |
| 20260504041554 | 54 | 239 | 1.0 | 7.0 | 0.00 | 0.00 | 0.00 | 57 | 1013.4 |
| 20260504040107 | 55 | 216 | 2.0 | 4.0 | 0.00 | 0.00 | 0.00 | 56 | 1013.4 |
| 20260504034615 | 56 | 263 | 1.0 | 8.0 | 0.00 | 0.00 | 0.00 | 54 | 1013.5 |
| 20260504033051 | 55 | 260 | 3.0 | 9.0 | 0.00 | 0.00 | 0.00 | 54 | 1013.4 |
| 20260504031555 | 55 | 329 | 2.0 | 7.0 | 0.00 | 0.00 | 0.00 | 54 | 1013.3 |
| 20260504030118 | 55 | 279 | 2.0 | 4.0 | 0.00 | 0.00 | 0.00 | 53 | 1013.4 |
| 20260504024559 | 55 | 0 | 1.0 | 3.0 | 0.00 | 0.00 | 0.00 | 54 | 1013.3 |
| 20260504023051 | 54 | 0 | 0.0 | 4.0 | 0.00 | 0.00 | 0.00 | 53 | 1013.3 |
| 20260504021553 | 53 | 34 | 0.0 | 3.0 | 0.00 | 0.00 | 0.00 | 60 | 1013.1 |
| 20260504020105 | 55 | 9 | 1.0 | 3.0 | 0.00 | 0.00 | 0.00 | 55 | 1013.1 |
| 20260504014600 | 55 | 247 | 2.0 | 6.0 | 0.00 | 0.00 | 0.00 | 49 | 1012.7 |
| 20260504013055 | 55 | 238 | 1.0 | 4.0 | 0.00 | 0.00 | 0.00 | 51 | 1012.6 |
| 20260504011551 | 56 | 231 | 0.0 | 3.0 | 0.00 | 0.00 | 0.00 | 47 | 1012.6 |
| 20260504010052 | 56 | 0 | 0.0 | 3.0 | 0.00 | 0.00 | 0.00 | 47 | 1012.7 |
| 20260504004554 | 56 | 271 | 1.0 | 3.0 | 0.00 | 0.00 | 0.00 | 46 | 1012.6 |
| 20260504003056 | 57 | 0 | 0.0 | 1.0 | 0.00 | 0.00 | 0.00 | 45 | 1012.6 |
| 20260504001605 | 58 | 0 | 0.0 | 3.0 | 0.00 | 0.00 | 0.00 | 45 | 1013.1 |
| 20260504000056 | 58 | 323 | 1.0 | 4.0 | 0.00 | 0.00 | 0.00 | 43 | 1013.3 |
| 20260503234552 | 59 | 246 | 1.0 | 4.0 | 0.00 | 0.00 | 0.00 | 43 | 1012.9 |
| 20260503233059 | 59 | 277 | 1.0 | 4.0 | 0.00 | 0.00 | 0.00 | 42 | 1013.0 |
| 20260503231554 | 60 | 218 | 3.0 | 8.0 | 0.00 | 0.00 | 0.00 | 40 | 1012.9 |
| 20260503230050 | 60 | 222 | 2.0 | 9.0 | 0.00 | 0.00 | 0.00 | 39 | 1013.1 |
| 20260503224553 | 62 | 286 | 5.0 | 11.0 | 0.00 | 0.00 | 0.00 | 36 | 1013.2 |
| 20260503223054 | 62 | 235 | 5.0 | 12.0 | 0.00 | 0.00 | 0.00 | 36 | 1013.3 |
| 20260503221550 | 61 | 261 | 5.0 | 12.0 | 0.00 | 0.00 | 0.00 | 35 | 1013.2 |